Date String (YYYY-MM-DD hh:mm:ss) UTC,Instrument flags,Ambient pressure (hPa),Sample flow (lpm),Bypass flow (lpm),Sample temperature (°C),Ambient temperature (°C),ASC tube jacket temperature (°C),LED temperature (°C),Box temperature (°C),Sample RH (%),Span deviation,Mass concentration (μg/m³),Mass concentration (μg/m³),Mass concentration (μg/m³)
DateTimeUTC,F1_M11,P_M11,Q1_M11,Q2_M11,T1_M11,T2_M11,T3_M11,T4_M11,T5_M11,U1_M11,ZSPAN_M11,X0_M11,X2_M11,X1_M11
2022-01-30 19:00:00,,0824.1,4.99,0.00,26.2,25.4,00.0,35.0,28.1,06.4,0000.0,0008.59,0004.30,0004.11
2022-01-30 19:01:00,,0824.1,5.01,0.00,26.2,25.4,00.0,35.0,28.1,06.0,0000.0,0008.88,0004.43,0004.21
2022-01-30 19:02:00,,0824.1,5.00,0.00,26.2,25.4,00.0,35.0,28.1,05.9,0000.0,0009.72,0004.53,0004.30
2022-01-30 19:03:00,,0824.1,5.01,0.00,26.2,25.4,00.0,35.0,28.1,05.7,0000.0,0009.97,0004.59,0004.37
2022-01-30 19:04:00,,0824.1,4.99,0.00,26.2,25.4,00.0,35.0,28.1,05.6,0000.0,0010.02,0004.63,0004.39
2022-01-30 19:05:00,,0824.1,5.00,0.00,26.2,25.4,00.0,35.1,28.1,05.4,0000.0,0009.68,0004.62,0004.40
2022-01-30 19:06:00,,0824.1,5.01,0.00,26.2,25.4,00.0,35.1,28.1,05.5,0000.0,0009.49,0004.61,0004.40
2022-01-30 19:07:00,,0824.1,5.00,0.00,26.3,25.4,00.0,35.1,28.1,05.2,0000.0,0009.51,0004.62,0004.38
2022-01-30 19:08:00,,0824.0,5.00,0.00,26.3,25.5,00.0,35.1,28.1,05.0,0000.0,0009.44,0004.60,0004.36
2022-01-30 19:09:00,,0824.0,5.00,0.00,26.3,25.5,00.0,35.1,28.1,05.4,0000.0,0009.18,0004.57,0004.32
2022-01-30 19:10:00,,0824.1,4.99,0.00,26.3,25.5,00.0,35.1,28.1,05.7,0000.0,0008.80,0004.55,0004.29
2022-01-30 19:11:00,,0824.1,5.00,0.00,26.3,25.5,00.0,35.1,28.2,05.6,0000.0,0008.75,0004.54,0004.29
2022-01-30 19:12:00,,0824.1,4.99,0.00,26.3,25.5,00.0,35.2,28.2,06.3,0000.0,0008.59,0004.52,0004.28
2022-01-30 19:13:00,,0824.1,5.01,0.00,26.3,25.5,00.0,35.2,28.2,06.6,0000.0,0007.96,0004.54,0004.28
2022-01-30 19:14:00,,0824.1,4.99,0.00,26.3,25.5,00.0,35.2,28.2,06.6,0000.0,0007.54,0004.56,0004.29
2022-01-30 19:15:00,,0824.0,5.01,0.00,26.3,25.5,00.0,35.2,28.2,07.2,0000.0,0007.63,0004.60,0004.32
2022-01-30 19:16:00,,0824.0,4.99,0.00,26.4,25.5,00.0,35.2,28.2,07.4,0000.0,0007.75,0004.65,0004.35
2022-01-30 19:17:00,,0824.0,5.02,0.00,26.4,25.5,00.0,35.2,28.2,07.0,0000.0,0007.89,0004.70,0004.37
2022-01-30 19:18:00,,0824.0,4.99,0.00,26.4,25.5,00.0,35.2,28.2,06.8,0000.0,0008.10,0004.75,0004.40
2022-01-30 19:19:00,,0824.0,5.02,0.00,26.4,25.6,00.0,35.3,28.2,06.6,0000.0,0008.86,0004.80,0004.45
2022-01-30 19:20:00,,0824.0,4.99,0.00,26.4,25.6,00.0,35.3,28.2,06.6,0000.0,0009.02,0004.90,0004.51
2022-01-30 19:21:00,,0824.0,5.01,0.00,26.4,25.6,00.0,35.3,28.2,06.4,0000.0,0009.13,0004.98,0004.58
2022-01-30 19:22:00,,0823.9,4.99,0.00,26.4,25.6,00.0,35.3,28.3,06.5,0000.0,0009.41,0005.08,0004.63
2022-01-30 19:23:00,,0824.0,5.01,0.00,26.4,25.6,00.0,35.3,28.3,06.6,0000.0,0009.78,0005.16,0004.67
2022-01-30 19:24:00,,0824.0,4.99,0.00,26.5,25.7,00.0,35.3,28.3,06.9,0000.0,0009.92,0005.18,0004.72
2022-01-30 19:25:00,,0824.0,5.01,0.00,26.5,25.7,00.0,35.3,28.3,06.7,0000.0,0010.01,0005.26,0004.78
2022-01-30 19:26:00,,0824.0,4.99,0.00,26.5,25.7,00.0,35.3,28.3,07.6,0000.0,0010.00,0005.28,0004.79
2022-01-30 19:27:00,,0823.9,5.01,0.00,26.5,25.7,00.0,35.4,28.4,08.1,0000.0,0010.52,0005.30,0004.79
2022-01-30 19:28:00,,0824.0,5.01,0.00,26.5,25.7,00.0,35.4,28.4,07.7,0000.0,0010.74,0005.31,0004.79
2022-01-30 19:29:00,,0823.9,4.98,0.00,26.5,25.7,00.0,35.4,28.4,07.8,0000.0,0010.79,0005.30,0004.78
2022-01-30 19:30:00,,0824.0,5.00,0.00,26.6,25.8,00.0,35.4,28.4,07.5,0000.0,0010.45,0005.35,0004.80
2022-01-30 19:31:00,,0824.0,5.01,0.00,26.6,25.8,00.0,35.4,28.4,07.4,0000.0,0010.44,0005.37,0004.82
2022-01-30 19:32:00,,0824.0,4.99,0.00,26.6,25.8,00.0,35.4,28.4,07.6,0000.0,0010.79,0005.39,0004.82
2022-01-30 19:33:00,,0824.0,5.01,0.00,26.6,25.8,00.0,35.5,28.5,07.4,0000.0,0010.77,0005.37,0004.81
2022-01-30 19:34:00,,0824.0,5.00,0.00,26.6,25.8,00.0,35.5,28.5,07.3,0000.0,0011.05,0005.35,0004.79
2022-01-30 19:35:00,,0823.9,5.00,0.00,26.7,25.8,00.0,35.5,28.5,07.4,0000.0,0011.15,0005.35,0004.78
2022-01-30 19:36:00,,0823.9,5.01,0.00,26.7,25.9,00.0,35.5,28.5,07.6,0000.0,0011.88,0005.30,0004.73
2022-01-30 19:37:00,,0823.9,4.98,0.00,26.7,25.9,00.0,35.5,28.5,07.4,0000.0,0011.86,0005.27,0004.70
2022-01-30 19:38:00,,0823.9,5.02,0.00,26.7,25.9,00.0,35.5,28.6,07.4,0000.0,0011.36,0005.23,0004.71
2022-01-30 19:39:00,,0823.9,4.98,0.00,26.7,25.9,00.0,35.5,28.6,07.4,0000.0,0010.93,0005.22,0004.73
2022-01-30 19:40:00,,0823.9,5.01,0.00,26.7,26.0,00.0,35.6,28.6,07.4,0000.0,0010.98,0005.23,0004.74
2022-01-30 19:41:00,,0823.9,4.99,0.00,26.8,26.0,00.0,35.6,28.6,08.0,0000.0,0010.56,0005.18,0004.72
2022-01-30 19:42:00,,0823.9,5.01,0.00,26.8,26.0,00.0,35.6,28.6,07.4,0000.0,0010.54,0005.14,0004.70
2022-01-30 19:43:00,,0823.9,4.98,0.00,26.8,26.0,00.0,35.6,28.7,07.2,0000.0,0010.31,0005.11,0004.66
2022-01-30 19:44:00,,0823.9,5.01,0.00,26.8,26.0,00.0,35.6,28.7,07.0,0000.0,0010.20,0005.09,0004.63
2022-01-30 19:45:00,,0823.9,4.99,0.00,26.8,26.1,00.0,35.7,28.7,07.2,0000.0,0009.68,0005.06,0004.63
2022-01-30 19:46:00,,0823.9,4.99,0.00,26.9,26.1,00.0,35.7,28.7,07.6,0000.0,0009.42,0005.08,0004.61
2022-01-30 19:47:00,,0823.8,4.99,0.00,26.9,26.1,00.0,35.7,28.7,07.4,0000.0,0008.88,0005.09,0004.60
2022-01-30 19:48:00,,0823.9,5.00,0.00,26.9,26.1,00.0,35.7,28.7,07.6,0000.0,0009.51,0005.07,0004.57
2022-01-30 19:49:00,,0823.9,5.01,0.00,26.9,26.1,00.0,35.7,28.7,07.6,0000.0,0009.57,0005.07,0004.53
2022-01-30 19:50:00,,0823.9,5.00,0.00,26.9,26.2,00.0,35.7,28.8,07.8,0000.0,0009.60,0005.06,0004.50
2022-01-30 19:51:00,,0823.9,4.99,0.00,26.9,26.2,00.0,35.7,28.8,07.9,0000.0,0009.52,0005.05,0004.48
2022-01-30 19:52:00,,0823.8,5.01,0.00,27.0,26.2,00.0,35.8,28.8,07.6,0000.0,0009.52,0005.03,0004.46
2022-01-30 19:53:00,,0823.8,4.99,0.00,27.0,26.2,00.0,35.8,28.8,07.5,0000.0,0009.42,0004.98,0004.42
2022-01-30 19:54:00,,0823.8,5.00,0.00,27.0,26.2,00.0,35.8,28.9,07.6,0000.0,0009.16,0004.91,0004.39
2022-01-30 19:55:00,,0823.9,5.01,0.00,27.0,26.2,00.0,35.8,28.9,07.3,0000.0,0009.41,0004.85,0004.34
2022-01-30 19:56:00,,0823.9,4.99,0.00,27.0,26.2,00.0,35.9,28.9,07.1,0000.0,0009.48,0004.81,0004.28
2022-01-30 19:57:00,,0823.9,5.01,0.00,27.0,26.3,00.0,35.9,28.9,06.5,0000.0,0009.60,0004.74,0004.21
2022-01-30 19:58:00,,0823.8,4.99,0.00,27.0,26.3,00.0,35.9,28.9,06.9,0000.0,0010.25,0004.68,0004.16
2022-01-30 19:59:00,,0823.8,5.00,0.00,27.0,26.3,00.0,35.9,28.9,06.7,0000.0,0009.89,0004.65,0004.11
